Vorticity
7 6 6 6 6 7 6 3 1 4 7 8 7 5 7 7 8 8 6 7 6 7 9 9 10 10 12 12 13 14 15 17 17 17 14 15 19 15 13 12 10 12 11 11 13 13 15 13 12 10 8 7 5 7 8 10 11 7 6 5 5 4 7 2 -6 1 1 -4 -1 7 14 12 13 5 -10 5 26 18 1 -7 1 14 5 4 17 16 15 10
7 7 7 7 7 7 5 1 2 5 7 7 6 6 8 8 8 7 6 7 6 8 9 10 11 12 14 14 16 18 18 22 21 18 18 22 21 16 16 15 12 11 9 11 11 12 14 13 14 11 9 8 5 7 6 9 10 8 8 5 7 4 5 10 1 -1 1 15 13 -5 9 8 8 18 1 4 12 8 12 -4 -8 18 25 18 21 18 23 31
7 8 8 7 7 7 3 1 3 6 7 5 5 7 8 8 7 6 6 6 7 9 10 12 14 15 17 18 21 22 23 24 20 20 26 27 21 20 19 16 14 12 10 10 11 12 13 14 14 12 10 9 7 7 6 8 8 8 10 4 7 8 4 8 7 -4 -17 3 15 4 14 4 4 18 0 -3 9 19 17 3 -2 3 11 6 4 -2 -3 25
8 8 7 8 8 6 2 2 5 6 7 5 5 7 8 8 7 6 6 6 8 10 13 15 17 19 19 21 22 21 21 18 18 23 25 21 20 23 21 20 17 13 11 10 12 12 12 14 15 15 13 10 8 7 6 5 7 8 9 5 5 8 8 6 5 7 5 -0 -2 17 14 -13 12 27 5 3 6 20 20 11 6 -8 -3 -9 -12 -1 -7 6
8 8 8 8 7 4 3 4 6 7 6 5 6 8 8 7 6 6 6 7 10 13 17 18 20 21 20 21 19 18 17 14 17 19 15 14 16 20 20 22 20 16 14 11 13 13 11 13 13 16 14 14 12 7 7 5 7 7 5 7 7 8 8 13 8 -11 -3 -2 -16 16 10 -27 9 16 -0 15 4 8 21 23 22 -2 -4 -5 -11 -1 -4 -5
8 8 8 7 6 4 3 5 7 7 5 5 7 7 7 6 6 6 7 9 13 17 19 21 21 20 18 18 16 16 16 14 15 13 13 14 12 14 16 20 21 19 17 13 14 13 13 12 11 14 11 14 14 10 9 6 7 5 6 6 7 12 1 7 24 5 -6 -14 -21 15 11 -18 15 7 -15 15 6 -2 12 12 20 12 3 10 8 3 -2 -4
8 7 6 6 5 3 3 6 7 6 5 6 7 7 7 6 6 7 9 12 16 20 21 20 19 17 16 16 16 16 17 16 16 17 19 19 16 15 14 16 19 20 18 15 14 14 13 12 12 14 13 13 11 13 12 9 9 4 6 7 5 11 3 -5 0 17 25 -6 -18 16 13 -4 22 6 -20 16 10 -12 13 14 6 9 6 12 13 8 5 0
7 5 6 5 3 3 4 6 6 5 4 6 7 7 7 6 7 9 12 16 18 21 20 18 17 15 16 16 17 17 17 17 18 21 20 20 21 20 17 15 16 19 19 18 16 16 14 12 12 11 13 14 12 14 12 11 11 7 7 6 7 5 7 11 -12 -7 20 7 -2 0 -7 5 30 12 -26 -2 14 -12 -1 13 12 18 11 11 12 11 12 5
4 5 7 5 3 3 5 6 5 5 5 7 7 6 7 6 9 11 15 18 20 20 17 17 17 16 19 18 18 18 17 17 18 19 18 20 21 21 21 18 17 18 18 18 16 18 18 16 15 16 15 13 12 15 15 14 9 9 10 5 10 6 2 13 5 1 -1 -7 24 27 -6 -3 16 20 -7 -21 9 19 -3 -18 -5 21 20 15 15 11 11 7
3 6 6 4 4 4 5 6 4 5 7 8 6 6 7 8 11 14 17 20 19 18 16 17 18 18 19 17 18 18 16 16 17 16 17 19 19 21 22 21 21 18 17 17 18 19 17 14 9 10 12 10 10 10 13 15 12 9 9 13 11 4 3 6 8 18 7 -34 -20 26 22 7 2 12 19 -18 -15 29 19 -12 -14 2 9 5 11 18 14 9
3 5 5 4 5 5 6 5 5 7 8 6 6 7 7 10 14 16 18 19 17 17 17 19 19 19 18 16 18 16 16 16 15 14 15 17 18 22 22 23 22 20 20 19 18 16 14 16 10 9 12 12 10 9 10 8 15 13 2 15 22 17 9 11 25 23 35 11 -44 -20 10 17 18 5 23 -1 -28 14 21 6 9 0 -6 -11 -6 10 15 12
3 4 5 5 5 6 5 4 6 8 7 6 7 7 9 13 16 17 19 18 16 17 19 20 19 18 17 17 16 14 14 14 13 13 13 14 16 19 20 23 23 22 24 20 19 17 15 21 19 19 19 17 15 14 17 6 7 11 1 5 20 45 20 -10 19 4 19 51 -3 -16 -11 -6 24 7 11 5 -22 14 20 -1 17 21 5 -1 -1 -5 -2 -1
4 5 5 6 6 5 4 5 8 8 6 6 7 9 11 15 17 18 18 16 18 19 19 19 17 17 17 15 13 14 15 13 13 12 11 12 12 16 19 22 24 23 23 21 23 22 20 21 17 18 16 16 16 13 18 14 11 7 3 -5 -18 26 33 -17 -8 -11 2 34 10 21 3 -30 18 21 1 1 -20 2 26 1 2 29 25 15 16 -2 0 5
6 6 6 6 5 4 5 7 8 6 6 7 8 11 15 17 18 17 17 17 19 19 18 18 17 17 15 12 13 13 12 11 14 13 12 12 11 14 16 19 23 23 23 23 23 23 21 20 19 18 16 15 14 11 11 11 18 16 10 1 -31 -19 16 7 -5 -11 7 12 -9 31 31 -27 -1 22 2 16 -3 -30 15 22 -15 8 28 20 21 5 5 19
6 7 7 6 4 5 6 8 7 5 6 8 9 14 17 17 17 16 17 18 19 18 17 18 17 15 10 10 13 10 10 14 15 13 12 13 12 13 13 14 19 21 23 22 22 24 22 22 23 20 20 18 17 20 20 11 10 15 13 7 -4 -14 -8 9 6 -14 -5 16 7 14 22 -8 1 28 12 33 31 -29 4 32 -22 -16 12 16 27 15 2 2
7 7 6 5 4 6 8 8 6 6 7 8 11 17 18 17 16 17 18 20 20 17 15 17 15 9 7 9 11 9 11 14 10 9 11 12 13 13 12 11 12 16 20 21 21 21 22 24 24 21 20 14 13 19 19 21 16 12 13 8 13 15 2 0 7 -6 -25 -11 7 -4 1 -6 -4 30 4 -0 27 1 18 24 -16 -3 6 4 18 16 10 -0
7 7 5 4 6 7 8 7 5 7 8 9 15 17 17 17 16 16 19 19 16 13 13 14 10 7 10 11 11 12 12 12 10 10 9 7 9 12 15 13 10 10 12 18 19 18 19 21 23 24 25 18 16 19 11 16 22 15 14 11 8 14 14 7 6 16 0 -13 -12 -25 -6 -4 -24 5 -6 -22 2 2 11 -4 -31 -7 1 -2 5 7 10 6
7 7 5 5 7 8 8 5 6 7 7 12 17 16 17 17 16 19 21 17 12 12 13 12 12 12 14 14 16 16 12 12 11 9 6 5 7 9 13 14 13 10 8 11 13 16 16 15 20 20 20 23 18 20 19 15 16 17 20 23 20 12 13 18 10 10 9 19 26 -5 -9 3 -12 -12 -19 -16 -2 -3 15 16 -10 -17 -13 -3 -4 -2 5 3
7 6 5 5 8 8 6 5 7 8 9 15 17 16 16 16 18 21 20 15 12 15 14 13 14 13 15 18 19 19 16 14 11 10 11 9 8 6 7 10 14 15 11 9 8 10 13 13 18 18 18 25 24 23 22 18 20 23 26 31 39 33 19 19 20 18 7 4 34 39 5 -7 -3 -9 -18 -17 -18 -18 -2 15 25 15 0 2 -4 -5 2 -0
7 6 5 6 8 7 5 6 8 10 14 17 17 17 15 16 19 20 17 12 14 17 12 12 11 11 16 15 14 18 18 18 17 17 13 8 8 6 5 6 7 12 13 14 11 8 13 11 9 15 18 19 25 31 28 29 24 14 19 18 23 42 44 39 28 27 42 19 7 37 40 22 12 -3 -3 -2 -17 -13 -6 -11 5 27 32 22 -2 -15 -12 -3
7 5 5 7 8 7 5 7 9 11 17 15 16 16 13 18 20 20 16 12 19 16 8 12 9 8 15 9 9 12 10 16 18 18 18 14 12 7 8 10 7 7 8 10 12 12 15 13 12 16 11 5 13 16 16 28 20 9 27 17 2 19 26 43 43 12 29 43 16 12 34 54 49 21 9 12 5 -5 1 8 -3 -4 24 40 21 -3 -13 1
7 5 6 7 7 6 5 9 9 12 18 16 16 15 14 21 22 18 12 13 22 8 2 15 4 5 18 8 5 6 7 15 10 7 13 16 17 13 10 11 9 9 8 6 7 10 11 11 14 9 -3 -1 10 6 -6 1 8 10 20 11 14 25 5 16 44 23 5 22 31 14 3 20 41 45 20 6 24 10 -19 -5 5 -5 0 19 35 34 11 -1
6 5 6 7 6 6 7 9 11 16 20 16 15 13 15 23 22 15 9 15 19 -0 3 17 3 12 24 5 3 7 4 10 9 7 9 11 16 14 11 10 9 11 9 8 6 3 6 9 4 -4 -0 7 12 15 2 -8 4 9 -2 -4 17 23 7 12 24 35 27 1 18 31 10 9 26 55 53 12 8 25 14 -14 -23 -1 7 -4 5 30 41 17
6 5 6 7 6 7 8 10 14 19 18 14 14 13 18 25 20 11 9 14 9 0 11 15 7 19 19 3 8 9 2 10 19 19 13 11 13 9 10 10 9 12 9 7 8 4 3 9 4 -2 10 12 3 12 14 3 12 26 12 -5 -4 -18 -11 24 12 18 40 5 7 22 -10 -6 17 36 65 61 22 6 40 36 -17 -21 6 15 2 -1 32 33
5 6 6 6 6 8 10 11 15 18 17 16 14 14 20 25 20 9 10 12 2 4 15 13 11 17 14 14 17 13 14 18 18 14 11 14 14 10 11 10 8 11 10 6 7 11 8 8 9 5 7 7 2 8 14 11 9 26 34 14 3 -20 -26 22 16 -4 18 9 23 40 -4 -16 7 -3 -13 28 57 9 -3 44 36 -8 -17 7 10 -10 8 24
5 7 5 6 7 8 11 12 15 17 17 15 11 15 23 26 19 7 9 13 2 5 13 9 9 9 13 21 19 18 18 12 9 11 12 14 12 12 11 12 13 8 9 11 7 10 11 7 9 11 10 8 6 6 6 12 7 6 22 27 35 18 -20 -4 8 -3 7 1 9 37 25 1 10 24 -12 -23 41 43 -1 21 44 19 -8 -10 -8 -5 11 10
5 7 5 6 8 9 12 13 17 18 16 14 11 16 25 25 15 5 11 12 2 7 10 4 5 5 12 18 15 19 15 8 14 15 13 12 9 12 10 9 14 10 11 18 12 8 7 6 6 6 12 11 6 10 6 9 14 4 5 11 25 42 24 -0 -5 1 9 2 -3 8 23 19 10 32 23 -22 -6 21 15 19 21 14 14 19 6 -4 12 13
5 7 5 7 10 9 12 13 18 18 13 13 12 17 26 24 12 5 10 7 2 11 8 1 4 2 8 14 12 15 13 14 18 12 8 8 5 7 9 8 10 9 9 11 12 13 12 10 11 8 12 14 8 12 12 9 13 4 6 9 -8 7 34 26 14 11 5 8 12 6 10 17 11 16 13 -7 -13 -16 2 38 43 17 -4 18 33 1 -8 5
6 6 5 8 10 11 15 15 17 17 12 11 12 19 27 21 12 9 7 4 7 11 5 3 6 2 4 9 9 11 13 16 16 11 8 4 1 -1 4 9 8 10 10 8 8 9 11 12 14 13 11 14 10 7 8 14 21 4 -5 7 -9 -23 -10 3 12 6 -4 11 12 -0 9 9 8 30 29 20 21 5 4 29 45 32 -7 -6 29 26 17 17
6 6 7 9 10 11 15 15 16 15 12 11 12 19 26 20 13 10 5 5 10 8 5 7 4 3 6 5 8 9 9 13 16 15 10 3 -0 -3 3 9 10 20 21 16 13 7 9 12 13 16 12 10 9 8 7 6 18 20 8 12 10 2 -3 -7 5 0 -11 8 1 -27 -14 -1 0 19 28 29 29 11 -2 -4 -2 9 -2 -17 -5 10 24 36
7 6 8 10 10 10 13 15 17 15 12 11 12 19 26 22 13 8 5 6 8 6 7 9 3 3 7 7 10 7 5 13 15 15 15 10 5 3 11 12 11 21 21 19 19 10 12 16 14 15 15 14 6 4 9 -0 -2 11 17 22 17 17 24 15 14 12 -6 -1 10 -8 -17 -3 3 -6 -2 24 28 -4 -16 -1 8 13 11 -7 -24 -25 -17 -3
7 7 9 11 10 11 13 16 16 14 12 11 12 20 26 20 10 8 7 5 7 8 8 9 8 10 11 9 9 6 8 13 7 6 12 13 12 11 13 12 12 12 8 9 8 -1 4 11 13 13 13 21 17 6 6 4 1 3 4 13 12 9 20 24 20 20 14 6 12 16 7 10 27 16 -7 6 37 38 18 8 11 20 31 25 -2 -20 -21 -23
7 8 10 10 10 12 13 15 15 13 12 11 11 22 27 17 8 8 9 7 5 7 9 8 9 14 15 11 10 9 11 13 11 10 11 10 11 12 11 15 17 9 1 2 0 -2 0 3 15 20 12 19 26 18 10 7 9 10 4 4 8 5 0 8 14 11 20 27 21 26 21 3 13 32 16 -15 -5 34 50 39 24 16 18 27 36 34 19 5
7 8 10 10 11 12 12 13 16 13 12 12 11 19 28 19 7 7 10 8 4 5 10 9 9 14 16 12 12 12 10 12 18 20 18 16 14 12 12 18 19 12 6 2 0 4 3 4 21 23 12 20 33 30 16 5 7 14 15 7 3 7 -1 -6 5 8 13 22 23 28 32 17 3 17 33 12 -17 -18 -2 14 23 25 13 -7 8 42 43 34
7 9 12 12 10 9 10 13 15 14 12 14 12 15 27 23 7 6 10 9 6 5 8 10 10 14 16 11 7 8 11 13 16 18 17 16 15 13 13 18 18 13 11 6 2 9 9 11 23 20 12 20 32 39 27 6 -0 4 12 12 3 6 11 3 -1 2 6 10 15 11 7 18 21 14 22 30 31 25 9 -2 -4 14 41 21 -10 1 15 20
7 10 10 10 7 7 13 14 13 15 12 15 14 11 23 25 8 5 10 8 7 6 7 10 11 13 13 9 4 4 9 13 13 15 14 12 13 13 11 14 14 9 11 10 8 12 14 18 21 13 12 18 20 33 39 24 6 -3 -3 5 7 5 10 14 4 -4 -5 -3 9 10 -5 -2 8 13 19 14 18 37 45 41 14 -15 -1 18 8 -1 3 10
7 10 11 8 7 8 12 12 12 16 13 13 14 10 21 26 10 4 8 7 7 6 7 11 13 15 14 10 6 3 6 12 14 16 16 13 11 8 6 9 9 8 11 12 12 11 11 15 18 9 9 18 21 23 31 31 19 11 7 5 9 7 3 10 13 8 6 1 3 6 1 1 -3 3 24 23 9 8 21 49 58 24 -4 -5 2 5 4 -0
7 13 13 5 5 8 11 12 13 15 12 12 13 11 21 28 14 5 6 6 7 6 9 15 14 14 16 14 9 4 4 8 12 16 17 14 8 5 7 7 5 9 12 9 9 9 8 8 10 12 10 10 15 16 19 24 19 12 12 9 10 9 4 6 7 3 4 8 13 9 3 8 3 -9 -2 15 27 17 -2 12 36 38 36 31 17 12 14 9
8 13 10 4 8 11 11 12 13 13 12 12 13 10 17 28 20 7 4 6 7 7 9 13 12 12 15 17 15 11 7 4 7 15 16 13 9 7 8 7 5 9 9 4 5 7 9 10 6 9 11 7 11 14 11 16 20 15 11 9 9 6 2 4 7 6 3 2 8 11 6 6 8 2 -9 -7 18 18 -6 -0 7 -7 10 39 28 7 6 12
9 12 9 6 10 11 11 15 15 14 12 10 12 10 14 28 26 9 3 6 6 7 8 6 7 12 14 16 20 20 13 5 5 11 13 11 10 9 9 8 6 8 8 6 10 11 9 10 10 9 7 6 11 14 11 10 13 14 14 13 13 13 10 9 10 11 8 4 3 5 8 7 5 8 1 -11 -2 2 -5 16 33 13 8 30 31 21 15 6
8 11 10 8 9 9 11 15 15 16 14 8 9 12 13 25 29 12 3 7 6 4 6 3 2 7 13 15 18 20 19 14 11 11 10 9 7 5 6 8 9 10 10 8 9 13 13 11 13 14 11 9 7 8 12 11 8 8 10 11 12 15 15 14 18 19 16 13 9 6 14 17 10 6 6 5 10 15 8 10 25 31 32 36 33 30 31 20
9 10 10 8 8 10 10 12 14 15 13 9 8 11 13 22 30 18 4 6 8 4 2 3 2 4 11 12 10 15 22 21 15 8 8 13 11 6 2 2 9 12 11 11 9 11 16 16 15 14 14 15 13 10 10 9 9 8 4 3 4 5 4 2 5 7 9 14 11 9 17 22 20 16 3 -9 -11 -2 6 4 0 0 4 18 31 30 26 22
10 11 10 6 7 10 10 12 16 14 11 9 9 10 12 20 29 23 7 4 8 7 2 1 2 7 11 8 5 12 19 22 20 13 12 14 10 13 15 6 6 14 16 16 15 12 13 17 21 19 13 12 13 16 17 14 14 14 9 8 6 5 6 7 6 1 0 8 5 -2 5 11 18 30 25 10 -2 -9 -7 1 7 9 3 7 26 39 40 36
10 12 9 5 8 11 10 13 18 16 12 9 8 9 10 18 29 26 11 4 6 8 7 2 2 10 13 8 7 11 15 22 26 19 18 18 8 11 22 16 8 13 20 19 14 12 10 10 18 21 16 13 12 11 10 9 10 14 15 14 12 11 9 5 6 4 2 8 6 -1 2 3 3 14 21 23 23 14 2 -10 -14 3 18 13 11 24 33 38
9 11 8 8 11 9 8 14 17 16 13 10 8 9 9 14 27 28 14 6 6 7 7 3 3 11 12 6 9 17 16 19 21 15 22 36 33 23 22 19 10 3 8 13 6 1 1 -0 5 13 13 12 11 8 7 7 4 6 11 12 10 12 12 11 16 14 6 6 5 5 10 6 -2 -2 2 7 13 18 21 14 -5 -9 6 8 2 11 18 18
9 11 8 8 9 7 8 14 17 15 13 10 7 8 10 12 23 31 20 7 6 7 6 4 5 12 11 4 11 22 19 18 21 18 21 32 34 27 21 18 16 10 12 16 11 6 7 7 6 10 12 11 10 11 12 12 8 6 9 12 11 10 10 14 18 15 20 27 18 8 11 10 3 -0 -2 -1 2 7 14 22 20 8 3 4 -4 -5 5 10
8 10 9 7 9 9 10 14 17 14 11 10 8 7 10 11 18 28 24 10 4 7 7 5 5 12 11 4 10 19 16 18 23 19 15 17 16 15 16 16 15 17 19 20 19 18 18 16 9 7 12 10 6 8 10 9 7 8 12 14 14 13 11 16 14 -0 5 30 39 31 21 12 8 10 10 4 -2 3 12 18 24 20 10 9 1 -8 1 12
7 10 8 8 10 9 9 14 17 15 10 8 8 7 9 10 15 25 26 12 3 6 9 6 6 11 10 3 8 16 13 14 18 14 10 12 12 9 11 12 9 8 8 7 11 13 12 12 8 7 14 12 7 12 13 9 9 11 16 17 13 9 5 15 30 21 3 11 39 55 43 18 7 4 11 16 5 -1 7 9 15 23 21 22 20 12 13 13
6 10 9 8 10 8 8 14 19 18 14 9 6 7 9 10 13 23 26 14 4 6 9 5 6 11 9 3 10 17 12 8 10 12 14 13 12 12 13 14 13 11 8 7 9 11 12 14 13 14 19 15 13 21 20 15 19 22 22 19 16 19 15 9 24 37 22 7 26 54 51 33 25 15 10 18 13 3 6 7 7 13 16 22 24 16 12 9
6 10 9 7 9 9 8 13 18 18 16 11 6 6 9 10 12 21 25 15 4 5 8 5 6 11 7 5 15 18 10 8 7 7 11 12 11 13 13 14 16 16 16 15 16 16 13 12 12 15 18 11 9 18 17 12 17 21 21 16 11 17 21 12 18 36 34 18 20 41 48 39 36 28 18 18 16 7 3 3 5 8 6 12 18 14 14 15
6 10 10 7 7 8 8 12 17 18 16 11 5 6 9 10 12 19 24 18 6 3 8 7 6 11 7 3 17 21 8 7 8 4 5 7 6 7 9 8 8 9 13 14 14 15 12 8 8 15 21 15 7 11 12 13 19 15 8 10 12 12 11 7 8 16 23 27 27 31 39 44 46 39 22 13 16 17 11 3 5 9 5 8 17 19 23 27
6 9 10 7 6 8 9 12 15 18 18 11 5 6 9 10 12 17 22 19 7 3 9 8 4 10 9 3 14 25 15 7 7 5 4 4 5 5 5 5 4 3 8 10 8 11 14 11 8 11 18 18 14 18 20 19 23 15 3 11 22 19 16 20 21 9 4 24 42 41 34 31 32 33 22 9 7 12 13 7 6 11 12 14 20 19 26 38
Height
5794 5792 5790 5788 5786 5783 5781 5779 5776 5774 5771 5768 5765 5763 5760 5757 5754 5751 5748 5745 5742 5739 5736 5733 5730 5727 5724 5722 5720 5718 5717 5716 5715 5715 5714 5716 5717 5717 5718 5720 5721 5724 5726 5728 5730 5732 5734 5737 5740 5743 5745 5747 5750 5754 5758 5761 5764 5766 5766 5767 5768 5772 5776 5782 5788 5791 5796 5802 5806 5810 5813 5815 5816 5820 5821 5821 5823 5825 5827 5827 5823 5821 5818 5818 5822 5826 5830 5834
5792 5790 5787 5785 5783 5781 5778 5776 5773 5770 5767 5765 5762 5759 5756 5752 5749 5746 5743 5739 5736 5733 5729 5726 5722 5719 5717 5714 5712 5710 5708 5708 5707 5706 5707 5708 5709 5709 5710 5712 5714 5716 5719 5721 5723 5725 5727 5730 5733 5736 5738 5741 5744 5749 5752 5755 5758 5759 5760 5761 5763 5768 5774 5780 5785 5789 5795 5800 5804 5808 5812 5813 5813 5816 5819 5820 5820 5823 5825 5821 5817 5816 5814 5817 5822 5824 5826 5830
5789 5787 5785 5783 5780 5778 5776 5773 5770 5767 5764 5761 5758 5754 5751 5748 5744 5741 5737 5734 5730 5727 5723 5719 5715 5712 5709 5707 5705 5703 5701 5700 5699 5700 5701 5701 5701 5702 5704 5705 5707 5709 5711 5714 5716 5718 5720 5723 5726 5728 5731 5734 5738 5742 5746 5749 5751 5754 5756 5756 5759 5766 5771 5777 5782 5787 5793 5798 5800 5804 5808 5811 5812 5813 5815 5817 5818 5820 5822 5816 5812 5812 5812 5816 5820 5820 5824 5827
5787 5785 5782 5780 5778 5775 5772 5770 5767 5763 5760 5757 5754 5750 5747 5743 5739 5736 5732 5728 5724 5720 5716 5712 5708 5705 5702 5700 5698 5696 5695 5693 5694 5695 5694 5694 5694 5695 5697 5698 5700 5702 5704 5707 5710 5712 5715 5718 5720 5723 5725 5727 5732 5735 5738 5742 5745 5749 5750 5751 5757 5763 5768 5774 5779 5783 5789 5794 5797 5799 5803 5806 5808 5810 5810 5812 5814 5817 5819 5814 5810 5811 5812 5816 5818 5818 5822 5825
5784 5782 5780 5777 5775 5772 5769 5766 5763 5760 5757 5753 5750 5746 5742 5738 5734 5730 5726 5722 5718 5714 5709 5705 5702 5699 5696 5694 5692 5691 5689 5688 5689 5689 5688 5688 5688 5689 5690 5692 5694 5696 5698 5700 5703 5706 5709 5712 5714 5717 5719 5722 5726 5728 5732 5737 5741 5743 5745 5749 5754 5760 5765 5770 5774 5778 5783 5789 5793 5795 5798 5801 5803 5805 5805 5807 5810 5813 5816 5813 5810 5812 5814 5816 5817 5817 5819 5822
5782 5779 5777 5774 5772 5769 5766 5763 5760 5757 5753 5749 5746 5742 5738 5734 5729 5725 5721 5717 5712 5708 5703 5699 5696 5693 5691 5689 5687 5686 5684 5683 5684 5683 5682 5682 5682 5683 5684 5685 5687 5689 5692 5694 5696 5700 5703 5705 5707 5710 5713 5716 5720 5722 5727 5733 5736 5737 5741 5746 5750 5756 5761 5764 5768 5774 5778 5784 5788 5790 5794 5797 5798 5801 5803 5804 5807 5811 5815 5812 5809 5811 5813 5814 5814 5815 5816 5818
5779 5777 5774 5772 5769 5766 5763 5760 5757 5753 5749 5745 5741 5737 5733 5729 5724 5720 5715 5711 5706 5702 5698 5694 5691 5688 5686 5684 5682 5681 5679 5678 5678 5677 5677 5677 5677 5678 5678 5679 5681 5683 5685 5687 5691 5694 5697 5699 5702 5705 5707 5710 5714 5717 5723 5728 5730 5732 5737 5742 5747 5751 5755 5758 5764 5770 5774 5779 5783 5786 5790 5792 5793 5797 5800 5801 5804 5810 5813 5810 5807 5807 5810 5811 5811 5812 5814 5815
5777 5774 5772 5769 5766 5764 5760 5757 5753 5749 5745 5741 5737 5733 5729 5724 5720 5715 5710 5705 5701 5697 5693 5690 5687 5684 5681 5679 5677 5676 5675 5674 5673 5672 5672 5672 5672 5672 5673 5674 5676 5677 5679 5682 5685 5687 5690 5694 5697 5699 5702 5706 5710 5713 5718 5723 5724 5726 5732 5739 5742 5745 5750 5755 5759 5764 5768 5775 5779 5781 5785 5786 5789 5793 5796 5798 5800 5804 5809 5807 5804 5803 5806 5807 5808 5810 5811 5811
5775 5772 5769 5767 5764 5761 5757 5754 5750 5746 5742 5738 5733 5729 5724 5719 5715 5710 5705 5700 5696 5692 5689 5686 5683 5680 5677 5675 5673 5672 5671 5670 5669 5668 5667 5667 5667 5667 5668 5670 5671 5673 5674 5676 5679 5682 5686 5689 5692 5695 5697 5701 5705 5709 5713 5716 5718 5722 5729 5735 5738 5739 5745 5750 5754 5759 5765 5770 5774 5777 5779 5781 5785 5789 5790 5793 5795 5799 5802 5803 5803 5799 5798 5802 5805 5808 5808 5809
5772 5770 5767 5764 5761 5758 5754 5750 5746 5742 5738 5734 5729 5725 5720 5715 5710 5705 5700 5695 5691 5688 5685 5682 5679 5676 5674 5672 5670 5669 5668 5667 5666 5665 5664 5664 5663 5663 5664 5665 5667 5668 5669 5671 5674 5677 5679 5681 5684 5685 5689 5694 5697 5702 5707 5710 5713 5720 5726 5728 5730 5734 5740 5745 5749 5754 5760 5763 5768 5772 5775 5777 5782 5783 5784 5788 5792 5796 5798 5801 5803 5796 5792 5796 5801 5805 5807 5809
5770 5767 5765 5762 5758 5755 5751 5747 5743 5739 5734 5730 5725 5720 5716 5710 5705 5700 5696 5691 5688 5684 5681 5678 5675 5673 5671 5669 5668 5667 5665 5664 5663 5662 5662 5661 5661 5661 5661 5662 5663 5664 5665 5668 5670 5671 5672 5676 5678 5681 5687 5690 5693 5698 5701 5704 5709 5717 5721 5722 5726 5730 5734 5740 5743 5749 5753 5756 5762 5767 5770 5773 5775 5775 5777 5784 5789 5792 5795 5800 5801 5793 5791 5794 5797 5802 5806 5808
5768 5765 5762 5759 5755 5752 5748 5744 5740 5735 5731 5726 5721 5716 5711 5706 5701 5696 5692 5688 5684 5681 5678 5675 5672 5670 5668 5667 5666 5665 5664 5662 5661 5660 5660 5659 5659 5658 5658 5659 5659 5660 5662 5664 5665 5667 5670 5673 5676 5681 5684 5686 5693 5696 5695 5699 5704 5709 5714 5719 5723 5722 5724 5731 5736 5742 5747 5751 5759 5762 5763 5766 5766 5767 5773 5780 5786 5788 5790 5796 5797 5791 5792 5794 5795 5799 5803 5806
5766 5763 5759 5756 5752 5749 5745 5741 5737 5732 5727 5723 5717 5712 5707 5702 5697 5692 5688 5685 5681 5678 5675 5672 5670 5668 5666 5665 5664 5663 5662 5661 5660 5659 5658 5657 5657 5657 5656 5656 5657 5658 5659 5660 5663 5665 5667 5670 5672 5676 5677 5682 5689 5687 5690 5698 5701 5703 5706 5709 5711 5711 5714 5722 5729 5737 5743 5747 5755 5757 5755 5758 5760 5763 5769 5775 5780 5785 5786 5790 5793 5792 5792 5793 5792 5793 5798 5802
5763 5760 5757 5753 5749 5746 5742 5738 5733 5729 5724 5719 5714 5708 5703 5698 5693 5689 5685 5681 5678 5675 5672 5670 5668 5666 5665 5664 5663 5661 5660 5659 5658 5657 5657 5656 5655 5655 5655 5655 5655 5656 5657 5658 5660 5662 5664 5667 5669 5672 5674 5679 5681 5680 5688 5695 5695 5699 5701 5700 5701 5705 5710 5718 5726 5734 5738 5741 5748 5750 5748 5751 5756 5759 5765 5770 5775 5780 5783 5785 5789 5792 5793 5792 5789 5788 5793 5798
5761 5758 5754 5750 5747 5743 5739 5735 5730 5725 5721 5715 5710 5705 5700 5695 5690 5686 5682 5679 5676 5673 5670 5668 5666 5665 5664 5663 5661 5660 5659 5658 5657 5656 5655 5655 5654 5654 5654 5654 5654 5654 5655 5656 5658 5660 5662 5664 5667 5669 5672 5676 5677 5680 5686 5688 5690 5694 5695 5696 5700 5705 5710 5715 5723 5730 5732 5734 5739 5742 5742 5747 5752 5755 5761 5768 5772 5775 5778 5780 5784 5789 5791 5792 5789 5787 5789 5793
5759 5755 5752 5748 5744 5740 5736 5731 5727 5722 5717 5712 5707 5702 5696 5692 5687 5683 5679 5676 5673 5671 5669 5667 5665 5664 5663 5661 5660 5659 5658 5657 5656 5655 5654 5654 5653 5653 5653 5653 5653 5653 5654 5654 5656 5657 5659 5662 5664 5667 5669 5672 5674 5678 5681 5683 5687 5690 5690 5695 5700 5704 5708 5712 5718 5723 5726 5728 5732 5735 5738 5744 5747 5751 5758 5765 5768 5769 5771 5775 5780 5784 5788 5791 5790 5786 5786 5789
5756 5753 5749 5745 5741 5737 5733 5728 5724 5719 5714 5709 5703 5698 5694 5690 5685 5681 5678 5675 5672 5670 5668 5666 5664 5662 5661 5659 5658 5657 5656 5655 5655 5654 5654 5653 5653 5653 5652 5652 5652 5652 5653 5654 5655 5656 5658 5660 5662 5665 5667 5669 5672 5675 5677 5679 5683 5687 5689 5693 5697 5701 5703 5707 5714 5719 5720 5721 5726 5732 5735 5739 5742 5746 5753 5759 5760 5762 5765 5770 5775 5779 5783 5788 5787 5784 5783 5784
5754 5750 5747 5743 5739 5735 5730 5726 5721 5716 5711 5706 5700 5696 5692 5687 5683 5679 5676 5673 5671 5668 5666 5664 5663 5661 5659 5658 5656 5656 5655 5654 5654 5653 5653 5653 5652 5652 5652 5652 5652 5652 5653 5653 5654 5655 5657 5659 5660 5662 5664 5667 5670 5672 5674 5677 5682 5685 5687 5691 5695 5698 5699 5703 5709 5714 5716 5717 5721 5727 5730 5733 5738 5743 5746 5750 5754 5759 5764 5766 5770 5774 5777 5783 5783 5779 5781 5782
5752 5748 5744 5740 5736 5732 5728 5723 5718 5713 5708 5703 5698 5693 5689 5685 5681 5678 5675 5672 5669 5667 5665 5663 5662 5660 5658 5656 5655 5654 5653 5653 5653 5652 5652 5652 5652 5652 5652 5652 5652 5652 5652 5653 5654 5655 5656 5658 5659 5661 5663 5665 5668 5670 5672 5676 5681 5683 5687 5690 5692 5694 5696 5700 5705 5709 5713 5716 5716 5719 5724 5727 5733 5738 5740 5744 5750 5754 5759 5762 5765 5770 5772 5777 5778 5776 5778 5782
5750 5746 5742 5738 5734 5730 5725 5721 5716 5710 5705 5699 5695 5691 5686 5683 5680 5677 5674 5671 5669 5666 5664 5662 5660 5659 5657 5655 5654 5653 5652 5652 5651 5651 5651 5651 5651 5651 5651 5651 5652 5652 5652 5653 5653 5654 5656 5657 5658 5660 5663 5665 5667 5669 5671 5675 5678 5682 5686 5689 5690 5693 5694 5697 5702 5706 5709 5712 5713 5715 5718 5721 5727 5732 5734 5739 5746 5748 5752 5757 5761 5766 5767 5770 5775 5775 5774 5778
5748 5744 5740 5736 5732 5727 5723 5718 5713 5708 5703 5698 5693 5689 5685 5682 5678 5675 5672 5670 5668 5665 5664 5662 5660 5658 5656 5655 5654 5653 5652 5651 5651 5650 5650 5650 5650 5650 5650 5650 5651 5651 5652 5653 5653 5654 5655 5656 5658 5660 5662 5665 5666 5666 5668 5672 5676 5678 5681 5685 5689 5691 5693 5695 5698 5703 5707 5708 5710 5714 5715 5716 5719 5724 5729 5734 5739 5742 5747 5751 5755 5762 5765 5766 5770 5773 5772 5773
5745 5742 5738 5734 5729 5725 5721 5716 5711 5706 5700 5695 5692 5688 5684 5680 5676 5673 5671 5669 5667 5665 5664 5662 5659 5658 5656 5655 5654 5653 5651 5651 5650 5649 5649 5649 5649 5649 5649 5650 5650 5651 5651 5653 5653 5654 5654 5656 5658 5659 5659 5661 5662 5664 5666 5669 5671 5673 5676 5681 5684 5687 5691 5694 5695 5699 5704 5705 5708 5712 5713 5714 5714 5717 5723 5728 5731 5736 5741 5745 5750 5756 5761 5763 5765 5770 5771 5769
5743 5740 5736 5731 5727 5723 5718 5714 5709 5703 5697 5693 5690 5686 5682 5679 5675 5673 5671 5668 5666 5664 5662 5660 5659 5657 5655 5654 5654 5652 5651 5650 5649 5649 5648 5648 5648 5648 5648 5649 5650 5650 5651 5652 5653 5653 5654 5655 5656 5656 5656 5658 5660 5663 5665 5666 5667 5669 5672 5675 5678 5683 5687 5692 5695 5696 5700 5704 5706 5707 5707 5709 5709 5711 5716 5722 5725 5730 5734 5739 5745 5750 5755 5759 5762 5765 5768 5767
5742 5738 5733 5729 5725 5721 5716 5711 5707 5702 5697 5693 5688 5684 5681 5677 5674 5672 5670 5668 5666 5664 5662 5660 5658 5656 5655 5654 5653 5652 5650 5649 5648 5648 5648 5647 5647 5648 5648 5648 5649 5649 5650 5651 5652 5652 5653 5654 5654 5654 5656 5658 5659 5661 5662 5664 5665 5667 5668 5670 5674 5678 5682 5687 5691 5693 5697 5700 5699 5699 5700 5700 5702 5705 5710 5716 5722 5726 5730 5733 5739 5745 5749 5754 5758 5761 5764 5766
5740 5736 5731 5727 5723 5719 5715 5710 5705 5700 5695 5691 5688 5684 5680 5676 5673 5671 5669 5667 5666 5664 5662 5660 5658 5657 5655 5654 5652 5651 5649 5648 5648 5647 5647 5647 5647 5647 5647 5648 5648 5648 5649 5649 5650 5651 5651 5652 5653 5654 5655 5657 5658 5659 5661 5662 5664 5665 5667 5669 5671 5674 5677 5681 5684 5687 5690 5693 5692 5693 5693 5692 5694 5697 5703 5710 5715 5720 5725 5728 5732 5739 5744 5748 5752 5756 5760 5763
5738 5734 5729 5725 5721 5717 5713 5708 5703 5698 5694 5690 5687 5683 5679 5675 5673 5671 5669 5667 5664 5663 5661 5660 5658 5656 5654 5653 5652 5650 5648 5648 5648 5647 5646 5646 5646 5647 5646 5647 5647 5647 5647 5648 5648 5649 5650 5650 5651 5653 5654 5655 5657 5658 5659 5660 5662 5665 5666 5668 5669 5670 5673 5677 5681 5683 5684 5686 5689 5689 5687 5687 5690 5693 5699 5705 5710 5717 5722 5723 5726 5732 5738 5741 5745 5750 5754 5757
5736 5732 5728 5723 5719 5715 5710 5706 5701 5696 5692 5689 5685 5682 5678 5675 5672 5670 5668 5666 5664 5662 5661 5660 5658 5656 5654 5653 5651 5650 5648 5648 5647 5646 5646 5646 5646 5646 5646 5646 5646 5646 5646 5647 5647 5648 5648 5649 5649 5651 5652 5653 5654 5656 5657 5658 5660 5663 5664 5665 5666 5667 5670 5672 5677 5680 5681 5683 5685 5686 5685 5685 5686 5689 5694 5700 5704 5712 5716 5715 5720 5728 5733 5736 5739 5744 5748 5751
5734 5730 5726 5722 5717 5713 5708 5704 5699 5695 5691 5687 5684 5680 5677 5674 5672 5670 5668 5666 5664 5663 5661 5660 5658 5657 5655 5653 5651 5650 5648 5648 5647 5646 5646 5646 5646 5646 5645 5645 5645 5645 5646 5646 5646 5646 5646 5647 5648 5649 5650 5651 5652 5653 5654 5655 5657 5660 5660 5660 5662 5664 5667 5669 5671 5673 5677 5680 5680 5681 5683 5682 5682 5684 5689 5694 5698 5704 5708 5711 5718 5726 5730 5733 5736 5739 5743 5746
5733 5728 5724 5720 5716 5711 5707 5702 5698 5694 5690 5687 5683 5679 5676 5674 5672 5670 5668 5666 5664 5662 5661 5659 5658 5656 5655 5653 5652 5650 5649 5648 5647 5646 5646 5645 5645 5645 5645 5644 5644 5644 5644 5644 5644 5644 5645 5646 5646 5647 5648 5649 5649 5650 5651 5653 5654 5656 5656 5656 5659 5660 5662 5665 5666 5668 5671 5672 5672 5675 5678 5679 5679 5681 5685 5691 5693 5698 5705 5709 5713 5718 5724 5729 5732 5734 5736 5740
5731 5726 5722 5718 5714 5710 5706 5702 5698 5693 5689 5686 5683 5679 5676 5673 5671 5669 5668 5666 5664 5662 5661 5659 5658 5656 5654 5653 5652 5650 5649 5647 5646 5646 5645 5645 5645 5644 5644 5643 5643 5642 5641 5642 5642 5642 5643 5644 5644 5645 5646 5647 5648 5648 5649 5651 5651 5652 5653 5654 5657 5658 5659 5661 5662 5665 5666 5665 5666 5670 5673 5676 5676 5677 5682 5686 5689 5695 5701 5703 5705 5710 5717 5722 5725 5727 5729 5731
5729 5725 5721 5717 5713 5708 5704 5701 5697 5692 5688 5685 5682 5679 5675 5673 5671 5669 5667 5665 5664 5663 5661 5659 5657 5656 5654 5653 5651 5649 5648 5647 5646 5645 5644 5644 5643 5643 5643 5642 5641 5641 5640 5640 5640 5641 5641 5642 5642 5643 5644 5645 5645 5646 5647 5648 5649 5650 5652 5653 5655 5656 5657 5659 5659 5661 5660 5659 5663 5667 5670 5671 5670 5673 5679 5682 5685 5691 5695 5697 5700 5706 5713 5717 5718 5720 5722 5724
5728 5724 5719 5715 5711 5707 5702 5698 5695 5691 5688 5684 5681 5678 5675 5673 5671 5669 5667 5665 5664 5662 5661 5658 5657 5655 5654 5652 5651 5649 5647 5646 5645 5644 5643 5643 5642 5641 5641 5640 5640 5640 5639 5639 5640 5640 5640 5641 5641 5640 5641 5642 5642 5643 5645 5645 5646 5649 5650 5651 5653 5654 5655 5655 5655 5656 5655 5657 5661 5665 5667 5666 5664 5669 5676 5678 5681 5686 5689 5692 5696 5701 5707 5710 5711 5713 5716 5718
5727 5722 5718 5714 5710 5705 5701 5698 5695 5691 5687 5684 5681 5677 5674 5672 5670 5668 5666 5665 5663 5661 5660 5658 5656 5655 5653 5652 5651 5649 5647 5646 5644 5643 5642 5642 5640 5639 5639 5638 5638 5638 5638 5638 5638 5638 5638 5638 5638 5638 5638 5638 5639 5640 5642 5643 5644 5646 5648 5649 5650 5652 5652 5652 5653 5653 5653 5655 5659 5663 5663 5662 5662 5666 5671 5674 5677 5680 5683 5688 5693 5696 5700 5703 5706 5709 5712 5714
5725 5721 5717 5713 5709 5704 5701 5698 5694 5690 5687 5683 5680 5677 5674 5672 5670 5668 5667 5665 5663 5661 5660 5658 5656 5654 5652 5651 5650 5648 5646 5645 5644 5642 5641 5640 5639 5639 5638 5637 5637 5637 5637 5637 5637 5636 5636 5636 5636 5636 5635 5635 5635 5636 5638 5640 5641 5643 5646 5646 5646 5648 5650 5650 5651 5652 5652 5654 5657 5659 5658 5658 5660 5663 5667 5670 5672 5674 5678 5683 5687 5690 5693 5697 5699 5702 5706 5710
5724 5720 5716 5712 5708 5705 5701 5697 5693 5690 5686 5683 5679 5676 5674 5672 5670 5668 5667 5665 5663 5661 5659 5658 5656 5653 5651 5650 5649 5648 5646 5644 5643 5642 5640 5639 5639 5638 5638 5637 5636 5636 5636 5636 5636 5635 5634 5633 5633 5633 5632 5632 5632 5633 5635 5637 5638 5640 5642 5643 5644 5646 5648 5648 5648 5649 5650 5650 5650 5652 5652 5652 5656 5659 5663 5666 5667 5669 5672 5677 5682 5685 5688 5691 5692 5695 5701 5706
5723 5719 5716 5712 5708 5705 5700 5696 5692 5689 5686 5683 5679 5676 5673 5671 5669 5668 5666 5665 5663 5661 5659 5658 5656 5654 5652 5650 5648 5647 5645 5644 5642 5641 5639 5638 5638 5637 5637 5636 5636 5636 5635 5635 5634 5633 5633 5632 5631 5631 5631 5630 5631 5631 5632 5634 5636 5637 5639 5641 5643 5644 5644 5644 5645 5645 5646 5644 5645 5649 5649 5650 5651 5653 5656 5661 5664 5667 5668 5671 5676 5679 5679 5681 5684 5689 5695 5701
5723 5719 5715 5711 5708 5704 5698 5694 5692 5689 5685 5683 5680 5676 5673 5671 5669 5668 5666 5664 5663 5661 5659 5658 5656 5654 5652 5650 5648 5646 5645 5643 5641 5640 5639 5638 5637 5637 5636 5636 5635 5635 5634 5634 5633 5632 5632 5631 5630 5629 5629 5629 5630 5630 5631 5632 5634 5635 5637 5639 5641 5641 5641 5640 5641 5642 5642 5641 5643 5647 5647 5648 5649 5649 5652 5655 5660 5663 5665 5666 5670 5673 5672 5673 5677 5682 5685 5690
5722 5718 5714 5711 5707 5702 5697 5694 5691 5688 5685 5682 5679 5676 5673 5670 5669 5667 5666 5664 5662 5661 5659 5657 5654 5652 5651 5649 5647 5645 5644 5642 5641 5640 5639 5637 5637 5636 5636 5635 5634 5634 5634 5633 5633 5632 5631 5630 5629 5629 5628 5629 5629 5630 5631 5631 5632 5634 5635 5637 5637 5638 5638 5637 5637 5638 5639 5638 5640 5642 5643 5644 5645 5647 5650 5651 5654 5658 5660 5661 5665 5669 5669 5669 5672 5676 5679 5684
5721 5717 5714 5710 5705 5700 5696 5693 5690 5687 5684 5681 5678 5675 5673 5670 5668 5667 5665 5663 5662 5661 5659 5657 5654 5652 5650 5648 5646 5644 5642 5641 5640 5639 5638 5637 5636 5636 5635 5634 5634 5633 5632 5632 5632 5631 5630 5630 5629 5628 5628 5628 5629 5630 5630 5631 5632 5632 5633 5633 5634 5635 5636 5635 5634 5635 5636 5635 5636 5637 5637 5638 5641 5644 5647 5649 5650 5653 5654 5654 5658 5661 5663 5662 5665 5669 5674 5680
5719 5716 5713 5708 5703 5699 5697 5694 5690 5687 5684 5680 5678 5675 5673 5670 5668 5667 5665 5663 5662 5661 5659 5656 5654 5652 5650 5647 5645 5644 5642 5640 5639 5638 5637 5636 5635 5635 5634 5634 5633 5632 5631 5631 5630 5629 5629 5629 5628 5627 5628 5628 5628 5628 5629 5629 5630 5630 5630 5631 5632 5632 5633 5633 5632 5632 5632 5632 5632 5632 5631 5633 5638 5641 5642 5645 5648 5649 5649 5649 5651 5652 5654 5657 5659 5662 5669 5674
5717 5715 5711 5706 5702 5700 5697 5693 5690 5687 5683 5680 5677 5675 5672 5670 5668 5666 5665 5663 5662 5660 5659 5656 5653 5651 5648 5646 5644 5643 5641 5639 5638 5638 5637 5635 5634 5633 5633 5632 5631 5631 5630 5629 5629 5628 5627 5627 5626 5626 5626 5626 5627 5627 5627 5628 5628 5628 5628 5629 5629 5630 5630 5629 5628 5629 5629 5628 5628 5627 5624 5627 5633 5636 5637 5640 5642 5644 5646 5646 5646 5646 5648 5651 5653 5657 5662 5668
5717 5714 5710 5706 5703 5700 5695 5691 5688 5685 5682 5679 5677 5675 5672 5670 5667 5666 5664 5663 5661 5660 5658 5655 5653 5650 5648 5645 5643 5642 5641 5639 5637 5636 5635 5634 5633 5632 5631 5631 5630 5630 5629 5628 5627 5626 5626 5625 5625 5624 5624 5624 5624 5624 5625 5625 5626 5626 5626 5626 5627 5627 5627 5626 5625 5626 5625 5623 5623 5622 5618 5620 5628 5631 5631 5633 5635 5637 5641 5642 5643 5643 5644 5646 5648 5651 5655 5659
5718 5713 5710 5707 5703 5699 5695 5691 5687 5684 5682 5679 5677 5674 5672 5669 5667 5665 5664 5663 5661 5660 5657 5655 5653 5651 5648 5645 5643 5641 5639 5638 5637 5635 5633 5632 5631 5630 5629 5629 5629 5628 5627 5626 5626 5625 5624 5623 5622 5622 5622 5622 5622 5622 5622 5622 5623 5623 5623 5624 5623 5623 5623 5622 5621 5621 5619 5617 5618 5616 5611 5614 5623 5626 5626 5628 5629 5630 5633 5636 5638 5639 5641 5643 5644 5646 5649 5652
5716 5713 5711 5707 5702 5698 5694 5691 5687 5684 5682 5679 5676 5673 5671 5668 5666 5664 5663 5662 5661 5660 5658 5656 5654 5651 5649 5646 5643 5640 5637 5635 5634 5632 5631 5629 5628 5628 5627 5628 5628 5627 5626 5625 5625 5624 5623 5622 5621 5620 5620 5620 5620 5620 5620 5619 5619 5619 5620 5620 5619 5619 5619 5617 5616 5615 5611 5611 5614 5609 5604 5611 5619 5620 5620 5622 5623 5624 5626 5628 5631 5633 5636 5639 5640 5642 5644 5645
5716 5713 5710 5706 5701 5698 5695 5691 5687 5684 5681 5678 5675 5673 5670 5668 5665 5663 5662 5662 5661 5660 5658 5656 5654 5651 5648 5645 5643 5640 5637 5634 5632 5630 5629 5627 5626 5626 5627 5627 5627 5627 5626 5625 5624 5624 5623 5621 5620 5619 5618 5618 5618 5618 5617 5616 5616 5615 5616 5616 5614 5614 5614 5611 5610 5607 5603 5605 5607 5601 5599 5607 5613 5613 5614 5615 5616 5617 5619 5621 5623 5626 5628 5632 5635 5636 5638 5639
5715 5711 5708 5704 5701 5697 5694 5690 5687 5683 5680 5678 5675 5672 5670 5668 5665 5663 5662 5661 5660 5659 5657 5656 5654 5651 5648 5645 5643 5641 5638 5635 5632 5630 5628 5627 5626 5626 5626 5626 5626 5626 5624 5624 5623 5622 5621 5620 5619 5618 5617 5616 5616 5615 5614 5613 5612 5612 5612 5611 5610 5609 5609 5606 5602 5600 5600 5599 5595 5594 5596 5601 5604 5607 5608 5609 5609 5611 5613 5614 5616 5618 5620 5623 5626 5629 5631 5634
5714 5710 5707 5704 5700 5696 5692 5690 5686 5682 5679 5677 5674 5672 5669 5667 5665 5663 5661 5660 5659 5658 5657 5655 5653 5651 5648 5645 5642 5640 5638 5635 5633 5631 5629 5628 5627 5626 5626 5625 5625 5624 5623 5622 5622 5620 5620 5619 5618 5616 5615 5615 5614 5613 5612 5610 5609 5609 5608 5607 5606 5605 5603 5601 5595 5594 5596 5590 5582 5587 5593 5592 5595 5601 5601 5602 5603 5604 5607 5608 5609 5611 5612 5615 5619 5622 5624 5627
5712 5709 5706 5703 5699 5695 5692 5690 5686 5682 5679 5676 5674 5672 5669 5667 5664 5662 5660 5659 5659 5658 5657 5655 5653 5651 5648 5644 5642 5640 5638 5636 5634 5632 5630 5628 5627 5626 5625 5625 5624 5623 5622 5621 5620 5619 5618 5618 5616 5614 5614 5613 5611 5610 5610 5608 5606 5606 5605 5603 5603 5601 5598 5594 5590 5589 5589 5581 5574 5581 5586 5582 5585 5593 5594 5596 5598 5598 5600 5602 5603 5604 5605 5608 5612 5615 5617 5620
5711 5708 5705 5702 5698 5695 5692 5689 5686 5682 5679 5677 5674 5671 5668 5666 5664 5662 5660 5659 5658 5657 5656 5655 5653 5651 5649 5646 5643 5641 5639 5637 5635 5633 5631 5630 5628 5627 5626 5625 5624 5624 5622 5621 5620 5619 5617 5616 5615 5613 5613 5611 5609 5608 5607 5606 5604 5603 5602 5600 5599 5598 5595 5591 5587 5584 5582 5575 5571 5574 5574 5572 5577 5585 5588 5590 5592 5592 5592 5594 5595 5596 5597 5600 5603 5606 5608 5613
5711 5707 5704 5700 5698 5694 5691 5689 5686 5682 5679 5676 5673 5670 5668 5666 5664 5662 5660 5658 5658 5657 5655 5654 5653 5652 5650 5648 5645 5642 5640 5638 5636 5634 5633 5631 5630 5629 5627 5626 5625 5624 5623 5622 5620 5619 5617 5616 5614 5613 5612 5610 5608 5607 5605 5603 5602 5601 5600 5598 5596 5594 5591 5588 5584 5580 5576 5572 5570 5569 5565 5565 5572 5579 5581 5584 5585 5585 5585 5586 5587 5589 5591 5593 5595 5597 5600 5606
5710 5707 5703 5700 5697 5694 5691 5688 5684 5681 5678 5676 5673 5670 5668 5666 5663 5661 5660 5658 5657 5657 5655 5654 5653 5652 5651 5649 5647 5644 5642 5640 5638 5636 5634 5633 5631 5630 5628 5627 5626 5625 5623 5622 5621 5619 5617 5615 5614 5613 5611 5609 5607 5606 5604 5602 5601 5600 5599 5597 5594 5591 5588 5584 5581 5578 5574 5570 5568 5565 5561 5562 5569 5574 5574 5576 5577 5577 5578 5581 5582 5584 5586 5587 5590 5592 5595 5600
5708 5706 5703 5699 5696 5693 5690 5686 5683 5680 5678 5676 5673 5670 5668 5666 5663 5661 5659 5658 5657 5656 5655 5655 5653 5652 5651 5650 5648 5645 5642 5641 5639 5637 5635 5634 5632 5631 5629 5628 5627 5625 5623 5622 5621 5619 5617 5616 5614 5612 5611 5609 5607 5605 5603 5601 5599 5598 5597 5594 5592 5588 5584 5581 5578 5576 5573 5569 5565 5562 5560 5561 5566 5567 5565 5567 5569 5569 5571 5574 5576 5578 5581 5582 5585 5588 5590 5594